Theta_e
316 316 316 316 316 316 315 315 314 313 313 313 312 312 311 310 310 311 311 313 317 319 320 321 320 320 320 320 321 320 320 320 320 320 319 318 317 316 316 317 316 314 314 314 313 310 305 302 300 298 297 297 296 295 294 294 293 293 294 294 294 295 296 297 297 296 295 295 293 291 290 289 289 288 288 288 288 288 288 288 288 288 288 288 288
317 316 316 316 317 316 316 315 314 314 313 313 312 312 311 310 310 310 310 313 316 318 319 319 319 319 320 321 321 320 320 320 320 320 318 316 316 316 316 317 316 315 313 313 312 310 307 303 300 299 296 296 296 295 294 293 293 294 294 294 295 296 297 297 297 297 296 294 292 291 289 289 289 289 288 288 288 288 288 288 288 288 288 288 288
316 316 316 316 317 317 316 315 314 314 314 313 313 312 311 310 309 309 310 312 314 316 318 319 319 320 321 321 320 320 320 319 318 319 317 315 315 316 316 316 316 315 314 313 312 311 308 304 301 299 296 295 295 294 293 293 293 293 294 294 296 297 298 298 297 297 296 294 291 290 290 290 289 289 289 288 288 288 288 289 289 288 288 288 288
316 316 316 316 316 317 317 317 315 315 315 314 314 313 311 310 309 309 310 312 313 314 317 319 320 320 320 320 320 320 320 319 317 317 316 315 315 315 315 316 316 315 314 314 312 311 309 305 301 299 296 294 294 293 293 293 293 293 294 295 297 298 297 297 297 297 296 293 291 290 290 290 290 289 289 288 288 288 289 289 289 289 288 288 288
316 316 315 315 316 316 317 317 317 316 315 315 314 313 312 311 310 309 310 312 313 314 317 319 320 319 318 319 319 319 319 319 317 316 315 315 315 315 315 315 316 315 313 313 312 310 308 305 301 299 296 294 294 293 293 293 293 294 295 296 297 297 297 297 297 297 296 293 291 290 290 290 290 289 289 289 288 289 289 289 289 289 288 288 288
316 315 315 315 315 316 316 317 317 317 316 315 314 314 312 311 310 309 309 312 313 314 317 319 318 318 318 318 318 318 319 319 317 316 315 315 315 315 315 315 316 315 313 312 310 308 307 304 301 298 296 295 295 294 293 294 294 294 296 297 297 297 297 297 297 296 295 293 291 290 290 290 290 290 289 289 289 289 289 289 289 289 288 288 288
315 315 315 315 316 316 316 317 317 317 316 315 314 314 313 312 311 309 309 310 312 312 315 317 318 318 317 317 316 317 317 318 316 315 315 315 315 314 315 315 314 313 311 309 307 305 304 303 302 298 296 295 295 294 294 294 294 295 296 297 297 297 297 297 297 296 295 294 292 291 291 291 291 290 289 289 290 290 290 289 289 289 289 288 288
316 315 315 315 316 317 317 316 316 316 315 315 314 314 313 312 311 310 309 309 310 310 311 314 316 317 317 317 316 315 316 316 316 315 315 315 314 313 313 314 313 310 306 304 303 303 302 302 301 298 296 295 294 294 294 294 294 295 296 296 296 296 296 297 296 296 295 294 293 292 292 292 291 290 289 290 290 291 290 290 290 290 289 288 288
316 315 314 314 315 316 316 316 316 315 315 314 314 314 313 313 312 310 309 309 309 309 309 311 313 314 315 316 316 315 315 316 316 315 315 314 313 312 312 313 313 310 304 301 301 302 302 302 300 297 294 294 294 294 293 294 295 296 296 296 296 296 296 296 296 295 295 294 293 293 292 292 292 291 291 291 291 291 290 290 290 290 289 288 288
316 316 315 315 315 315 315 316 316 315 315 315 314 313 313 313 312 311 310 309 308 308 309 310 311 312 313 315 316 316 316 316 316 315 315 314 312 311 311 311 312 310 304 300 300 301 301 301 298 294 293 293 293 293 292 293 295 295 296 296 296 296 296 296 295 294 294 294 293 293 292 292 292 292 291 291 291 290 290 290 290 289 289 288 288
316 316 316 315 315 314 314 315 315 315 315 314 314 313 312 312 312 311 311 309 308 308 308 310 311 312 312 313 314 315 316 316 317 315 314 314 312 311 311 310 311 309 303 299 299 300 300 299 295 292 292 292 292 292 292 293 295 295 295 296 296 296 296 295 294 292 292 293 292 292 292 292 292 291 291 291 290 290 290 289 288 288 287 287 287
316 316 316 316 315 314 314 314 314 314 314 314 314 313 312 312 312 311 311 310 309 308 308 309 310 311 312 312 313 314 315 316 316 315 314 313 312 312 311 310 311 310 305 300 299 299 299 296 293 291 292 292 292 292 292 293 294 295 295 295 295 296 296 295 293 292 292 292 292 291 291 291 291 291 290 290 290 289 289 288 288 287 287 286 286
315 315 315 315 315 315 314 313 313 313 313 313 313 313 312 312 312 312 311 310 309 308 308 308 309 309 310 310 311 312 314 315 315 314 313 312 312 311 311 310 310 311 308 302 298 298 297 294 292 291 292 292 291 292 293 293 294 294 295 295 295 295 295 295 293 293 292 292 292 291 291 290 290 290 290 290 289 289 289 288 288 287 286 286 286
315 315 315 315 315 315 314 313 313 313 312 312 312 312 312 312 312 311 311 310 309 309 308 307 308 309 309 309 310 311 313 314 315 314 313 312 311 310 309 310 309 310 309 304 298 297 295 293 292 292 292 292 291 292 292 293 293 294 294 295 295 295 295 295 294 294 293 293 292 292 291 291 291 290 290 290 289 289 289 288 288 287 286 286 285
315 315 315 315 315 314 314 313 313 312 312 312 311 311 312 312 311 311 310 309 309 308 308 307 307 309 309 310 310 312 313 314 315 314 312 311 310 309 307 308 309 309 308 303 298 295 293 292 292 292 292 292 292 292 293 293 293 294 294 295 295 295 295 294 294 294 294 293 293 292 292 291 291 291 290 290 289 289 288 288 287 286 286 285 285
314 315 315 315 314 313 313 313 313 312 311 311 311 311 311 311 311 310 309 308 308 307 307 307 307 308 309 310 311 311 312 313 314 313 311 310 309 307 304 304 306 308 306 301 295 293 292 292 292 292 292 292 293 293 293 292 293 293 294 295 295 295 295 294 293 293 293 293 293 292 292 291 291 290 290 289 289 288 287 286 286 285 285 284 284
314 314 314 314 313 313 313 312 312 312 311 311 311 310 311 310 310 309 307 307 307 306 307 306 306 307 308 309 310 310 310 312 312 312 311 309 308 307 305 304 304 302 299 297 294 291 291 291 291 291 291 292 293 293 292 292 292 293 294 294 295 295 295 293 292 291 291 291 291 291 291 290 290 290 289 288 287 286 285 285 285 284 283 283 284
314 314 314 313 313 312 312 311 311 311 310 310 310 310 310 309 309 308 307 306 306 306 305 305 305 306 307 308 309 310 310 311 312 312 310 309 308 307 306 306 304 299 294 292 291 291 291 290 290 290 291 292 292 292 291 291 292 293 293 294 295 295 295 293 292 291 290 289 290 290 289 288 288 287 286 286 285 285 284 284 284 283 283 283 283
313 313 313 313 312 311 311 310 310 310 310 309 309 309 309 308 308 307 305 305 305 304 304 304 304 306 307 308 309 310 311 312 312 310 308 307 307 306 305 304 302 298 293 291 290 290 291 290 289 290 291 291 291 291 291 291 292 292 293 294 295 295 294 292 291 290 289 288 288 287 287 286 285 285 285 285 284 284 284 284 284 283 283 283 282
312 312 312 312 312 311 310 310 309 309 309 309 308 308 308 307 307 306 305 304 304 303 303 303 304 306 307 308 309 310 311 311 311 309 307 306 305 304 303 302 299 295 292 290 290 290 290 289 289 289 290 290 291 290 290 291 291 292 293 294 294 295 293 291 290 289 288 287 287 286 285 285 285 285 285 285 284 284 284 284 284 284 283 283 282
311 312 312 312 312 311 310 310 309 308 308 307 307 307 306 306 305 305 304 303 303 303 302 302 302 304 306 307 308 309 310 310 310 308 306 304 303 302 301 300 298 294 291 290 290 289 290 289 288 289 290 290 290 289 290 290 291 292 293 294 294 293 291 289 288 288 287 287 286 285 285 286 286 286 285 285 285 284 284 284 284 285 284 283 282
311 311 311 311 311 311 310 309 308 307 307 306 306 306 305 305 304 303 303 302 302 302 301 301 301 302 303 305 306 307 308 308 307 304 302 301 300 298 297 296 296 293 290 289 289 289 289 289 288 289 290 290 289 289 289 290 291 292 293 293 293 292 289 287 287 287 287 286 286 286 287 287 287 286 286 286 285 285 285 285 285 284 284 283 282
311 311 311 311 311 311 310 309 308 306 306 305 305 304 304 303 303 302 302 301 301 300 300 299 299 300 300 301 302 303 303 303 302 300 299 299 298 295 293 292 291 290 289 289 289 289 288 288 289 289 290 289 289 289 289 290 291 292 293 293 292 289 287 286 286 287 287 287 287 288 288 288 288 287 287 286 286 286 286 286 285 284 283 282 281
311 311 311 311 311 311 310 309 307 306 305 304 303 303 303 302 301 301 301 300 300 299 299 298 298 298 298 299 300 300 300 299 299 298 297 298 296 293 292 291 289 288 289 288 288 289 289 289 289 289 289 289 289 289 290 290 291 292 292 292 290 287 286 286 287 287 287 288 289 289 289 288 288 288 287 287 286 286 287 286 285 283 282 280 279
311 311 311 310 310 310 310 309 307 306 304 303 302 302 301 301 300 300 300 299 299 298 298 298 297 297 297 298 298 298 299 298 298 298 298 297 295 294 294 291 289 288 288 288 288 289 289 288 288 288 288 288 288 289 290 290 291 292 291 289 287 286 286 287 288 288 289 289 289 289 288 288 288 287 287 287 287 287 287 286 284 281 280 279 279
310 310 310 309 308 307 307 307 306 305 304 302 301 300 300 300 300 299 299 299 298 298 298 297 297 296 297 297 298 299 299 298 298 298 298 298 297 295 293 290 289 288 288 288 289 289 289 288 288 288 288 288 289 290 290 291 291 290 288 286 286 286 287 288 289 289 289 289 289 288 288 288 287 287 287 287 287 287 286 284 281 280 279 278 278
309 309 309 307 306 304 304 304 304 303 303 301 300 300 299 298 298 298 298 298 298 298 297 297 297 297 297 298 298 298 298 298 298 298 298 297 296 294 290 288 288 288 288 288 289 289 288 288 288 288 288 289 289 290 290 290 289 287 286 286 287 288 288 289 289 289 289 288 288 288 288 287 287 287 287 286 286 286 284 282 280 279 279 278 278
308 307 306 305 304 303 302 301 301 300 300 300 299 299 298 298 297 297 298 298 298 298 298 298 298 298 298 298 298 298 298 298 299 299 299 298 296 293 289 288 288 288 288 288 288 288 288 288 288 289 289 289 290 290 290 289 287 286 287 288 288 289 289 289 289 288 288 288 288 288 287 287 287 286 286 286 286 285 283 281 280 279 279 278 278
306 305 304 303 302 301 300 300 299 298 298 298 298 298 298 297 297 297 298 298 298 298 298 299 299 299 299 299 299 299 299 300 300 300 299 298 296 294 292 290 289 288 288 289 289 289 289 289 289 289 289 290 290 290 289 287 287 287 288 289 289 289 289 289 288 288 288 288 287 287 287 287 286 286 286 286 285 284 282 281 280 280 280 279 278
304 303 302 301 300 299 299 298 298 297 297 297 296 296 296 296 296 297 297 297 297 296 296 297 297 298 298 299 299 299 299 299 299 298 297 296 295 293 292 291 290 290 289 289 289 289 289 290 290 290 291 291 290 289 288 288 288 289 289 289 289 289 288 288 288 288 288 287 287 286 286 286 286 286 286 285 285 283 282 281 281 281 280 279 278
303 302 301 300 299 298 298 297 297 296 296 296 296 296 296 296 296 296 295 295 295 295 295 295 295 296 296 297 297 297 297 296 296 296 296 296 294 293 292 292 291 291 290 290 290 290 290 291 291 291 291 290 289 289 289 289 289 289 289 289 289 288 288 288 288 287 287 287 286 286 286 286 285 285 285 284 283 282 282 281 281 281 280 278 278
302 301 300 299 298 297 297 296 296 295 295 295 295 295 295 296 295 295 294 293 293 293 294 294 294 294 295 295 295 296 296 296 296 296 296 295 295 294 293 293 292 292 291 291 291 292 292 291 291 290 289 289 289 290 290 290 289 289 289 288 288 288 288 288 287 287 286 286 286 286 285 285 285 284 284 283 282 282 282 281 281 280 279 278 278
301 300 300 299 298 297 297 296 295 295 295 295 294 294 294 295 295 294 293 292 292 293 293 293 293 294 295 295 295 296 296 296 296 296 295 295 294 294 293 293 292 291 291 291 291 291 291 290 290 290 290 290 290 290 289 289 289 288 288 288 288 288 287 287 286 286 286 285 285 285 285 285 284 283 282 282 281 281 281 281 280 279 278 278 278
300 299 299 298 297 296 296 296 296 295 295 295 294 294 293 293 294 294 294 294 294 293 293 293 293 294 295 295 295 295 295 294 294 294 294 293 293 292 292 291 290 289 289 290 290 290 290 290 290 290 290 290 290 289 289 289 288 288 288 288 288 287 287 286 286 286 285 285 285 285 285 284 283 282 281 281 280 280 280 279 279 278 278 278 277
299 299 298 297 297 296 296 296 296 296 296 295 295 294 293 293 293 294 295 295 295 295 294 294 294 294 294 294 294 294 293 293 292 292 292 292 291 291 290 290 289 289 289 290 290 290 290 290 290 290 290 289 289 289 289 288 288 288 288 287 287 287 286 286 286 285 285 285 285 284 284 283 282 281 280 280 280 279 279 279 278 278 277 277 276
298 298 298 297 297 297 297 297 297 297 296 296 295 294 294 294 294 294 294 295 296 296 296 296 295 294 293 293 292 292 292 292 291 291 291 291 291 291 291 291 291 291 291 290 290 290 290 290 289 289 289 289 289 288 288 288 288 288 287 287 287 286 286 285 285 285 285 285 284 283 282 282 281 280 280 279 279 279 278 278 277 277 276 276 275
298 298 298 298 298 298 298 298 298 297 297 296 296 295 295 295 295 295 295 295 296 296 296 296 296 295 294 293 292 291 291 291 291 290 290 290 291 291 291 291 291 290 290 290 290 290 289 289 289 289 289 289 288 288 288 288 287 287 287 286 286 286 285 285 285 285 284 284 283 282 281 280 280 279 279 278 278 278 277 277 276 276 275 275 275
298 299 299 299 299 299 298 298 298 297 297 297 296 296 296 296 295 295 295 295 295 295 295 295 294 294 294 293 292 291 291 291 291 290 290 290 290 290 290 290 290 289 289 289 289 289 289 289 289 289 289 289 288 288 288 287 287 286 286 286 286 285 285 285 284 284 283 283 282 281 280 279 279 278 278 277 277 277 276 276 275 275 275 274 274
299 299 299 298 298 298 298 297 297 297 297 297 296 296 296 295 295 295 295 294 294 294 294 294 293 293 293 293 292 292 292 291 291 290 290 290 290 289 289 289 289 289 289 289 289 289 289 289 289 288 288 288 288 287 287 286 286 286 286 286 285 285 284 284 283 282 281 281 280 279 279 278 278 277 277 276 276 276 276 275 275 275 274 274 274
298 298 298 297 297 297 296 296 296 296 296 296 296 296 296 295 295 295 294 294 294 294 293 293 293 293 292 292 292 291 291 290 290 290 289 289 289 289 289 289 289 289 289 289 289 289 289 288 288 288 287 287 287 286 286 286 285 285 285 285 285 284 283 282 281 280 279 279 278 278 278 277 277 276 276 276 276 275 275 275 274 274 274 274 274
297 297 297 296 296 295 295 295 295 295 295 295 295 295 295 294 294 294 293 293 293 293 293 292 292 291 291 290 290 290 290 289 289 289 289 289 289 289 288 288 288 288 289 289 288 288 288 288 287 287 287 286 286 285 285 285 285 285 285 284 283 283 282 281 279 279 278 277 277 277 277 277 276 276 276 276 275 275 275 274 274 274 274 273 273
297 297 296 296 295 295 295 295 295 295 295 295 294 294 294 293 293 293 293 292 292 292 291 291 290 290 290 290 289 289 289 289 289 289 288 288 288 288 288 288 288 288 288 288 288 288 287 287 286 286 285 285 285 285 285 285 284 284 283 282 282 281 280 279 278 278 277 276 276 276 276 276 276 276 275 275 275 275 274 274 274 273 273 273 273
296 296 296 296 295 295 295 295 295 294 294 294 293 293 293 292 292 292 292 291 291 290 290 290 289 289 289 289 289 289 288 288 288 288 288 288 288 288 288 288 288 288 288 287 287 287 286 286 285 285 284 284 284 284 284 284 283 282 281 281 280 280 279 278 277 277 276 276 275 275 275 275 275 274 274 274 274 274 274 273 273 273 273 272 272
295 295 295 294 294 294 294 294 294 293 293 292 292 292 292 291 291 291 291 290 290 289 289 289 289 289 289 288 288 288 288 288 288 288 288 288 288 287 287 287 287 287 287 287 286 286 285 284 284 284 284 284 283 283 283 283 282 281 281 280 280 279 279 278 277 277 276 276 275 275 275 274 274 274 274 274 274 274 273 273 273 272 272 272 272
293 293 293 293 293 293 293 293 292 292 291 291 291 290 290 290 290 290 290 289 289 289 289 289 288 288 288 288 288 288 288 288 288 288 288 287 287 287 287 287 286 286 286 286 285 284 284 284 283 283 283 283 283 282 282 282 281 281 280 280 279 279 279 278 278 277 277 276 276 275 275 275 274 274 274 274 274 273 273 272 272 272 272 271 271
292 291 291 291 291 291 291 291 290 290 290 290 289 289 289 289 289 289 289 289 288 288 288 288 288 287 287 287 287 287 287 287 287 287 287 287 287 286 286 286 286 285 285 284 284 284 283 283 283 283 283 282 282 282 281 281 280 280 280 279 279 278 278 278 277 277 277 276 276 275 275 275 274 274 274 274 273 273 272 272 272 271 271 271 270
291 290 290 290 290 290 290 289 289 289 289 289 289 289 289 289 288 288 288 288 287 287 287 287 287 287 287 287 287 287 287 287 287 286 286 286 286 286 286 285 285 284 284 283 283 283 283 283 283 282 282 282 281 281 280 280 280 279 279 278 278 278 277 277 277 276 276 276 275 275 274 274 274 273 273 273 272 272 272 271 271 271 270 270 270
290 290 290 290 289 289 289 289 289 289 289 288 288 288 288 288 287 287 287 287 287 287 287 287 287 287 287 287 287 286 286 286 286 286 286 285 285 285 284 284 284 283 283 283 283 283 282 282 282 281 281 280 280 280 279 279 279 278 278 277 277 277 276 276 276 275 275 275 274 274 274 273 273 273 272 272 272 271 271 271 270 270 270 269 269
289 289 289 289 289 289 289 289 288 288 288 288 287 287 287 287 287 287 287 287 286 286 286 286 286 286 286 286 286 286 285 285 285 285 285 284 284 283 283 283 283 282 282 282 282 282 281 281 280 280 280 279 279 279 278 278 277 277 277 276 276 275 275 275 274 274 274 274 273 273 273 273 272 272 272 271 271 271 270 270 270 269 269 268 268
287 288 288 288 288 288 288 288 287 287 287 287 287 287 286 286 286 286 286 286 286 286 285 285 285 285 285 285 285 284 284 284 284 283 283 283 282 282 282 282 282 282 281 281 281 280 280 279 279 279 279 278 278 278 277 277 276 276 275 275 275 274 274 274 273 273 273 273 272 272 272 272 271 271 271 270 270 270 269 269 269 268 268 268 268
286 286 286 286 286 286 286 286 286 286 286 286 286 286 286 286 286 285 285 285 285 285 284 284 284 284 283 283 283 283 282 282 282 282 282 281 281 281 281 281 281 280 280 280 279 279 278 278 278 278 278 277 277 276 276 276 275 275 274 274 274 273 273 273 272 272 272 272 271 271 271 271 270 270 270 270 269 269 269 268 268 268 268 267 267
Wind_Speed
19 18 16 16 17 18 20 21 21 23 25 28 33 35 36 37 36 34 33 34 36 37 39 39 38 38 39 42 43 44 46 45 43 43 41 40 39 37 37 41 45 45 44 42 42 41 40 38 35 33 33 31 30 30 29 26 24 22 20 18 16 13 10 8 9 10 12 13 14 14 14 12 11 12 12 12 12 11 10 10 11 13 13 13 13
21 20 18 17 17 18 20 22 22 22 23 26 31 34 36 37 36 35 35 37 39 40 41 40 40 40 39 40 41 41 42 42 43 44 42 40 40 38 39 43 45 46 47 45 43 42 40 39 36 34 32 31 31 31 29 27 24 22 20 18 15 12 9 9 10 11 12 13 14 13 12 11 11 12 12 12 12 11 10 11 12 14 14 14 15
23 23 21 18 18 18 21 22 23 23 22 24 28 32 36 37 37 35 35 38 39 40 40 40 40 39 37 36 38 39 41 42 43 44 43 40 40 39 40 44 46 47 47 45 43 42 42 40 39 36 33 32 32 31 29 27 24 22 20 18 14 11 9 9 10 12 13 13 14 12 11 11 12 12 13 13 12 12 12 12 14 15 15 16 17
28 27 25 22 20 20 22 23 23 24 23 23 25 29 33 36 37 37 35 36 38 38 38 39 40 40 39 38 40 41 42 43 43 43 43 41 40 40 42 46 47 46 46 45 44 44 43 42 41 38 35 34 33 32 30 27 25 23 21 18 14 10 9 9 10 12 13 14 14 13 12 12 13 14 14 13 13 13 14 14 15 17 17 18 19
33 31 29 27 24 23 24 24 25 25 25 24 24 26 31 35 37 38 36 37 38 38 38 40 42 41 41 42 43 43 43 44 45 44 42 41 41 42 44 46 47 45 44 43 43 44 44 43 42 39 38 36 35 33 31 29 27 25 22 18 13 10 9 9 11 12 14 14 14 13 13 13 14 15 15 14 15 16 17 17 17 19 20 21 22
37 36 33 30 28 26 25 27 27 26 26 25 24 25 28 33 37 39 38 38 40 40 41 43 43 42 42 43 43 44 45 47 47 46 43 41 41 42 44 46 47 45 43 43 44 44 43 43 42 41 39 38 36 34 32 30 28 26 22 17 13 10 9 10 12 13 15 15 15 15 14 14 15 16 16 16 17 18 19 19 20 21 23 24 25
38 39 38 34 31 29 27 28 29 29 28 27 26 26 27 30 35 39 39 40 41 43 45 46 45 44 44 44 44 44 45 48 49 48 45 43 41 42 44 46 47 45 44 44 44 43 43 43 43 41 39 36 35 34 32 31 29 26 21 16 12 9 9 11 13 15 15 16 16 15 14 15 17 17 17 17 19 20 20 21 22 22 24 27 28
38 39 40 40 36 32 30 30 32 32 31 30 29 28 28 29 34 37 39 42 43 44 46 48 47 46 45 45 45 45 45 47 49 49 48 44 42 41 42 45 46 44 43 44 44 44 43 43 43 41 38 35 34 34 33 32 30 26 21 16 11 9 11 14 15 16 16 17 17 15 15 16 18 18 18 19 20 20 20 22 24 25 25 28 29
39 38 40 42 40 36 34 34 35 36 35 33 32 31 30 30 32 36 39 42 44 45 46 47 48 48 47 45 45 47 47 48 48 50 49 46 42 41 41 43 45 45 44 44 45 45 44 43 41 39 36 34 33 33 32 31 29 26 21 16 12 12 14 16 16 15 16 17 17 16 17 18 18 19 20 20 20 20 20 23 26 27 27 29 30
39 39 39 40 40 40 39 37 38 40 39 36 35 35 33 32 32 35 39 41 44 46 47 48 48 49 49 48 46 47 49 50 49 49 50 48 43 41 40 40 43 44 44 45 46 45 43 41 39 37 35 34 33 33 32 31 28 25 21 18 16 16 17 17 16 15 16 17 16 16 18 19 19 19 20 19 19 20 22 24 27 28 29 31 32
38 39 39 38 39 42 43 42 42 43 43 40 39 38 37 35 34 35 38 41 44 45 47 49 49 50 51 51 50 48 49 50 49 48 50 49 45 42 39 38 42 44 44 46 46 46 44 41 39 38 36 34 34 34 34 32 29 25 22 21 20 19 18 17 16 15 15 15 14 15 18 19 18 18 20 19 19 20 23 25 28 29 30 32 34
36 37 38 38 39 41 43 45 46 46 46 44 42 41 40 39 37 36 39 42 44 46 48 49 51 52 53 53 54 52 50 49 48 49 52 50 45 42 40 38 41 44 45 46 47 46 45 42 41 40 38 36 36 37 35 33 30 27 24 23 22 20 18 17 17 16 16 15 15 16 17 17 17 17 18 18 19 21 24 26 29 30 31 33 35
35 35 36 37 39 41 43 45 47 47 48 47 46 44 43 42 40 38 39 41 44 47 48 49 50 51 52 54 55 54 52 50 48 49 51 49 44 43 41 39 42 45 45 46 47 47 46 45 44 42 39 38 39 39 37 35 32 28 26 26 24 21 19 18 18 18 18 17 17 17 17 18 18 17 16 18 20 22 25 28 29 30 31 33 35
32 33 34 35 37 39 42 44 46 47 48 48 49 48 46 45 43 41 40 41 44 47 49 49 50 50 50 52 53 53 52 51 49 48 49 48 44 43 41 40 42 45 45 45 47 48 47 46 45 44 42 42 42 40 37 36 33 30 29 28 25 22 20 19 20 22 21 21 21 20 19 19 20 19 19 20 22 24 27 29 30 30 32 33 35
32 33 34 34 36 38 40 42 44 45 46 48 50 50 49 47 46 45 43 43 44 47 49 50 50 51 50 50 52 53 52 50 48 47 49 47 44 44 44 42 42 44 44 45 47 49 47 45 45 44 43 43 42 39 37 36 34 31 31 29 26 24 21 19 19 21 23 23 24 23 22 22 22 22 22 23 25 27 28 30 31 32 33 34 36
32 33 34 34 35 36 38 40 42 44 45 47 49 51 50 49 48 47 45 44 44 46 48 49 50 51 52 52 53 54 53 49 46 45 47 45 41 43 46 45 44 45 45 46 48 49 47 45 44 44 43 41 37 36 36 36 33 32 32 29 26 25 23 19 17 18 20 23 25 25 25 26 25 25 25 26 28 29 30 32 33 32 32 34 36
32 33 34 34 33 34 35 37 40 42 44 46 48 49 50 50 49 48 47 46 45 45 46 48 50 51 52 53 53 54 53 50 46 45 46 44 41 42 44 45 46 47 48 47 48 48 47 45 44 43 41 36 33 33 35 35 33 34 33 29 26 26 26 23 19 19 20 22 24 25 27 29 28 27 28 30 31 31 32 33 32 30 30 32 35
33 33 33 33 32 32 34 36 38 40 43 45 46 47 48 49 49 48 47 47 45 44 44 46 47 49 51 52 53 53 52 49 48 49 49 45 42 42 43 43 45 47 49 48 48 47 45 44 44 42 38 33 31 33 34 34 35 36 33 29 27 28 27 25 23 21 21 22 24 25 27 28 28 28 30 31 32 33 33 31 29 28 29 30 32
33 32 31 32 32 33 33 35 36 38 41 43 44 45 46 47 48 48 47 46 44 43 43 44 46 47 49 51 51 51 50 48 49 51 49 44 43 45 45 45 46 48 49 48 47 46 44 44 44 42 36 32 32 33 33 35 37 37 33 29 28 29 27 26 26 25 24 24 24 24 25 26 26 28 31 31 31 31 31 30 28 28 29 30 30
30 30 31 32 33 33 34 34 36 37 39 40 41 43 44 45 46 46 45 44 43 42 42 43 44 46 49 51 50 49 50 48 48 49 47 44 45 47 47 46 48 50 49 48 47 45 44 44 44 40 35 32 32 33 34 37 39 36 32 29 30 29 25 26 28 29 28 28 26 25 25 25 27 30 31 30 29 28 27 27 27 27 28 28 28
31 31 32 33 33 34 34 35 35 36 37 38 39 41 43 44 44 44 43 42 41 41 41 42 43 46 49 51 50 49 49 49 48 48 48 45 45 46 46 45 46 48 47 46 45 44 43 43 41 39 36 34 34 34 37 40 38 34 31 31 30 28 25 27 30 31 31 30 27 25 25 26 28 29 29 28 26 25 24 25 25 26 26 26 26
33 33 33 33 33 33 33 34 34 35 35 37 38 40 41 42 42 42 41 40 40 40 40 41 41 44 47 49 49 48 48 48 48 48 46 43 42 44 45 44 45 45 44 43 43 41 40 40 39 38 37 36 36 38 40 39 36 33 32 31 29 27 27 29 31 33 32 29 25 24 25 26 27 27 26 25 24 23 23 24 23 23 24 23 22
35 35 35 35 34 34 33 33 33 33 34 35 36 38 39 40 40 39 39 39 39 39 39 39 40 42 45 47 47 46 45 45 45 44 41 39 40 41 41 41 42 42 41 40 40 39 38 37 36 36 36 36 38 40 39 36 33 33 33 30 28 27 28 30 32 32 30 25 23 24 24 24 24 24 23 23 22 22 22 22 22 21 20 19 18
37 37 36 36 36 35 33 32 31 32 32 32 34 36 37 38 38 37 37 38 38 37 37 38 39 41 44 44 44 43 41 41 40 39 37 36 35 34 35 36 38 38 38 37 37 36 34 34 34 34 35 36 37 37 35 33 33 33 32 29 27 28 29 31 32 29 25 23 23 23 23 22 22 22 22 22 21 21 21 22 22 20 18 17 16
39 39 37 36 35 35 33 32 31 30 30 30 32 34 35 36 36 36 36 36 36 36 37 37 39 40 42 42 42 40 39 38 37 36 35 33 32 31 32 33 34 35 36 36 36 33 32 32 33 33 34 36 36 34 33 33 33 32 29 28 28 29 30 30 28 24 22 22 22 22 21 20 20 20 20 20 20 20 21 21 20 19 18 17 18
40 40 38 35 34 33 33 32 30 29 28 28 29 31 33 34 35 35 35 35 35 35 36 37 38 40 41 41 40 39 38 37 35 33 32 32 31 31 30 30 31 33 35 36 35 34 33 33 34 35 36 36 34 34 34 33 32 30 29 28 28 29 28 26 23 21 21 21 21 20 20 20 20 20 19 19 20 21 21 20 20 19 19 19 20
41 40 37 35 33 31 31 31 30 28 28 27 28 30 31 31 32 33 34 34 35 35 36 36 37 39 39 39 38 37 35 34 33 32 31 32 32 31 29 29 31 34 35 36 36 36 35 35 35 35 34 34 33 33 33 32 31 30 29 28 27 26 24 22 21 21 21 20 20 20 20 20 19 18 18 19 21 21 20 20 21 22 22 22 23
40 38 35 33 31 30 29 29 29 28 28 27 28 29 30 30 31 31 31 32 33 34 35 35 36 36 36 36 35 34 33 32 30 30 31 33 33 32 32 33 34 36 37 37 37 36 35 34 34 33 33 33 34 34 33 32 31 29 28 26 25 23 21 20 21 21 20 20 19 19 19 19 18 18 19 20 21 20 20 21 22 24 24 24 24
38 35 33 30 28 28 27 27 27 27 27 27 28 28 28 28 28 28 28 29 30 30 30 31 31 32 31 30 29 28 27 27 27 28 30 32 32 31 32 34 35 36 36 36 36 35 34 34 34 35 35 35 34 34 32 31 29 27 26 24 22 21 20 21 21 20 19 19 19 18 17 17 17 18 19 20 20 20 21 22 23 24 24 24 25
35 32 29 26 25 25 25 25 25 26 26 26 27 27 27 26 25 25 26 26 26 25 24 23 23 24 24 24 23 21 19 19 21 24 26 27 27 27 29 31 32 34 35 34 34 34 35 35 36 36 35 34 33 32 30 29 27 25 23 22 21 21 21 21 20 19 19 18 17 15 15 16 17 18 19 20 20 20 21 22 23 23 23 23 24
31 28 25 23 22 22 22 23 23 24 25 25 26 26 27 26 25 24 23 22 21 21 20 18 17 17 18 17 17 17 15 12 14 17 19 21 22 24 26 28 29 31 32 32 32 33 34 34 34 33 32 31 30 28 27 26 24 23 22 22 22 22 20 19 18 17 16 15 14 13 14 16 17 18 18 19 20 20 21 22 22 22 22 22 24
27 25 22 20 20 20 21 21 22 23 24 24 25 26 27 27 26 24 22 20 18 17 17 17 16 16 15 14 14 15 15 15 15 16 17 18 20 22 23 24 25 26 27 28 29 30 31 31 30 30 29 29 27 26 25 24 23 22 22 22 21 20 18 16 16 15 15 14 13 13 14 15 16 16 17 17 18 19 20 20 20 21 21 22 23
23 22 20 18 18 19 19 20 21 22 23 24 25 26 26 27 26 25 22 19 17 16 16 16 16 15 15 15 15 15 15 16 17 19 20 20 21 22 23 23 23 25 26 27 28 28 28 28 27 27 27 26 24 24 23 22 22 22 22 21 19 17 16 16 15 15 14 13 13 14 15 15 15 15 15 16 16 17 18 19 19 20 21 22 22
20 19 18 16 16 17 18 18 19 20 21 23 24 25 25 25 25 24 22 19 18 17 17 16 16 16 16 16 17 17 17 18 19 20 21 21 22 22 23 23 24 25 27 27 27 27 26 26 25 25 24 24 23 22 22 22 22 22 21 19 17 16 17 16 16 14 13 13 14 15 15 15 14 14 14 15 16 17 18 18 18 19 20 21 21
19 18 16 14 13 14 16 16 17 18 19 21 22 23 24 22 21 21 21 19 18 18 17 17 17 16 16 15 16 17 18 18 18 18 19 20 21 23 24 26 27 27 27 26 25 24 24 24 24 23 23 22 22 22 22 22 22 21 19 17 17 17 18 17 15 14 14 14 14 14 14 15 14 14 15 16 16 17 16 16 17 18 19 19 20
18 17 15 13 12 12 13 14 14 15 16 18 19 20 20 18 17 17 17 16 15 14 13 14 14 14 14 13 13 14 15 16 17 17 18 19 21 23 24 25 26 26 25 24 24 24 23 23 23 22 22 22 22 22 22 22 21 19 17 17 18 19 18 16 15 15 15 14 14 13 14 14 15 15 16 17 17 16 16 16 16 17 18 19 19
17 16 15 14 13 12 11 11 10 11 12 13 14 15 15 14 14 14 14 13 13 13 12 12 13 13 14 15 15 15 15 16 16 17 17 18 19 20 20 21 21 22 22 22 22 23 22 22 22 22 22 22 22 22 22 21 19 18 18 19 19 18 17 15 15 15 15 14 13 13 13 14 14 15 17 17 16 16 16 16 16 17 18 18 19
16 15 15 14 13 13 12 11 10 10 10 11 12 13 13 14 14 14 14 14 14 14 13 13 13 14 15 16 17 17 17 17 17 17 18 19 19 20 20 20 20 20 20 20 20 20 21 21 21 22 22 22 22 22 21 20 19 18 19 19 19 17 15 15 15 14 14 13 13 13 13 14 15 16 16 17 17 16 17 17 17 18 19 19 20
16 15 15 14 14 14 14 13 12 11 11 12 13 13 14 14 14 14 14 14 14 13 13 13 13 13 14 15 16 16 17 18 19 19 20 20 21 21 21 21 21 20 20 20 20 20 20 20 20 21 21 21 21 21 20 19 18 19 19 18 17 15 14 14 14 14 14 14 13 13 14 15 15 16 17 17 17 17 17 18 18 19 21 21 22
16 15 14 15 15 15 14 14 12 12 12 12 13 13 14 14 14 14 14 14 14 13 13 13 13 13 14 14 15 16 17 18 19 20 21 21 21 21 21 21 21 21 20 20 20 20 20 20 20 21 21 21 20 19 18 18 18 18 17 16 15 14 13 14 14 15 15 15 15 15 16 16 16 17 18 18 18 18 18 19 20 20 21 22 22
16 15 15 15 15 15 15 14 13 12 12 12 13 13 13 14 14 14 14 14 14 13 13 13 14 14 15 15 16 16 16 17 18 18 19 20 20 20 20 20 20 20 20 20 20 19 20 20 20 20 19 18 17 17 17 17 17 16 15 14 14 14 14 15 16 16 17 17 17 17 17 17 18 18 19 18 18 19 19 20 21 21 22 23 23
17 17 17 17 16 16 15 15 14 13 12 12 12 12 13 13 13 13 13 13 13 13 14 14 15 15 16 16 16 16 17 17 17 18 18 18 19 18 18 19 19 20 20 19 19 19 19 19 18 17 16 16 16 16 17 17 16 15 15 15 16 16 16 17 17 18 19 19 20 20 20 19 19 20 20 20 20 21 21 22 22 23 23 24 24
20 19 19 19 18 17 17 15 14 13 12 12 12 13 13 13 13 13 13 13 14 14 15 15 16 17 17 17 18 18 18 18 19 18 18 18 18 18 18 19 19 19 19 19 19 19 18 17 16 16 15 15 16 17 17 16 16 16 17 17 18 18 19 19 20 20 21 21 22 22 21 21 21 22 22 22 23 23 23 24 24 24 24 24 24
19 18 18 18 18 17 17 15 14 13 13 13 13 14 14 14 14 15 15 15 16 16 16 17 17 18 18 19 19 19 19 19 19 18 18 18 18 18 18 18 18 18 18 18 18 18 17 16 16 16 16 16 17 17 18 18 18 18 18 19 19 20 21 21 22 22 22 22 23 23 23 22 23 23 23 23 24 24 24 24 24 24 23 23 23
17 16 15 16 16 16 15 15 14 14 15 15 15 16 16 16 16 16 17 17 17 17 18 18 18 17 18 18 18 17 17 18 18 18 18 18 18 18 18 18 18 19 19 18 18 18 17 16 16 16 17 18 18 18 19 19 19 19 19 19 20 21 21 22 22 22 22 22 23 23 23 23 23 23 23 23 24 24 24 23 22 22 22 22 22
14 14 13 13 14 14 14 14 14 15 16 16 16 16 16 16 17 17 18 18 18 17 17 17 17 17 17 16 16 16 16 16 16 17 17 17 18 18 19 19 19 19 19 18 18 17 17 17 17 17 18 19 19 19 20 20 19 19 19 20 20 21 21 22 22 22 22 22 23 23 23 23 23 23 23 23 23 23 23 22 22 21 21 21 21
12 12 12 12 13 13 13 14 14 15 15 15 15 15 15 16 16 17 17 17 17 16 15 15 15 16 16 16 16 16 16 16 16 17 17 18 18 19 19 19 19 18 18 17 17 17 17 17 17 18 18 19 19 20 20 20 20 20 20 21 21 22 22 22 22 22 22 23 23 23 23 23 22 22 23 23 23 23 22 21 20 20 20 20 20
12 12 12 13 13 13 13 13 14 14 14 14 14 15 15 15 15 15 15 15 15 14 15 15 15 16 16 16 16 16 16 16 17 17 17 18 18 18 18 18 17 17 17 17 17 17 17 17 18 19 19 19 19 20 20 20 20 21 21 22 22 23 22 23 23 23 23 23 23 23 23 23 22 22 22 22 22 21 21 20 19 19 19 20 20
11 11 11 12 12 13 13 13 14 14 14 13 13 13 13 13 13 13 13 13 13 14 14 14 15 15 15 15 15 16 16 16 16 16 16 16 16 16 16 16 16 16 16 16 17 17 18 18 19 19 19 20 20 20 20 21 21 22 22 23 23 23 23 23 23 22 23 22 22 22 23 22 22 22 22 22 21 20 20 19 19 18 19 19 19
9 9 10 10 11 12 12 12 12 12 12 12 12 11 11 11 12 12 12 12 12 13 13 13 13 14 14 14 15 15 15 15 15 15 14 15 15 15 15 15 15 15 16 16 17 18 19 19 20 21 21 21 21 21 22 22 22 22 23 23 23 23 23 23 23 22 22 22 22 22 22 22 22 22 22 21 21 20 19 18 18 18 18 18 18
7 7 8 8 9 9 10 10 10 10 11 11 10 10 10 10 10 11 11 11 11 12 12 12 12 13 13 13 13 13 13 13 13 13 13 14 14 14 15 15 15 16 17 17 18 19 20 21 22 22 22 22 22 22 22 22 23 23 23 23 23 23 23 22 22 22 22 22 22 22 22 21 21 21 21 21 20 19 18 18 18 18 18 18 18
Wind_Direction
275 275 274 276 281 284 287 287 282 277 273 266 261 256 251 246 240 235 231 228 225 224 225 228 231 234 235 234 236 237 229 221 222 223 222 224 224 225 229 230 227 223 219 218 221 223 223 222 222 223 223 222 222 223 224 222 218 215 215 214 213 214 222 238 256 262 261 260 253 247 248 253 258 261 264 268 272 276 281 287 292 292 290 293 300
276 274 271 273 281 283 282 282 281 278 274 268 263 258 253 248 242 236 231 227 225 226 227 231 234 234 234 234 232 228 224 224 225 224 223 225 225 225 229 230 228 225 221 219 220 222 222 222 223 224 223 222 223 224 224 222 218 215 213 210 208 215 232 250 263 267 265 260 252 246 250 257 262 263 265 268 270 273 278 284 288 287 287 292 298
272 270 268 271 280 283 281 279 279 279 277 272 266 260 255 250 244 239 233 229 228 228 229 231 232 230 228 227 226 225 227 228 226 225 225 226 225 226 230 231 230 227 223 220 221 223 223 221 222 223 222 221 220 221 222 220 217 214 211 208 210 223 243 259 269 273 269 260 252 249 253 259 263 264 266 268 270 273 278 282 284 285 287 290 294
269 268 266 268 273 280 284 281 277 278 279 277 272 264 257 251 246 241 234 230 229 228 229 228 227 227 226 225 227 229 231 229 226 225 226 227 227 228 231 233 232 229 224 221 222 224 224 222 221 222 221 219 218 218 218 216 214 212 209 209 217 234 252 265 274 276 269 260 255 255 256 260 264 266 269 271 273 276 279 281 283 285 287 289 291
271 268 266 265 266 273 282 281 278 277 278 279 276 267 259 252 246 242 236 230 228 227 227 225 225 227 227 227 229 231 233 231 228 227 227 228 229 230 232 234 234 230 226 225 226 226 224 223 222 221 220 219 219 219 217 214 212 210 209 212 224 242 258 269 278 276 267 260 257 257 257 262 267 269 273 276 276 278 281 282 284 286 287 287 288
278 270 267 265 264 268 275 279 280 277 275 277 277 271 262 254 247 242 238 232 228 227 226 225 227 229 229 230 230 232 234 232 228 227 228 228 230 232 233 235 236 233 229 229 229 227 225 224 223 223 222 221 221 220 217 214 212 210 210 216 230 248 266 279 282 275 264 256 255 257 261 266 269 271 274 276 278 280 282 284 285 287 287 288 288
288 276 269 266 266 267 271 277 278 275 272 273 274 272 266 257 249 243 238 233 231 229 227 227 228 230 232 233 233 234 236 234 229 227 228 227 228 232 234 236 236 233 231 231 230 227 226 225 224 224 224 224 223 222 218 213 211 210 212 221 234 254 276 286 282 272 260 252 250 256 263 269 271 272 274 276 279 282 286 288 288 287 288 289 291
295 285 275 268 267 269 272 274 274 272 270 268 269 270 267 260 252 245 238 234 233 233 231 231 231 233 234 233 234 237 239 238 234 230 229 228 228 231 235 236 235 232 231 232 230 227 224 223 224 225 224 225 225 223 219 214 211 210 214 223 239 263 283 286 278 266 256 250 249 253 260 265 269 272 274 276 279 285 291 291 290 291 292 291 292
296 292 283 274 270 270 272 274 274 271 268 266 265 267 267 262 254 247 241 236 234 235 235 234 234 235 236 234 234 237 239 242 239 233 229 228 228 231 235 237 236 233 231 231 229 225 223 222 223 223 222 222 223 221 217 214 212 213 215 224 242 266 283 281 268 257 253 251 249 252 258 262 265 270 272 276 282 289 292 291 292 296 296 293 292
297 295 290 285 278 272 270 273 274 272 268 266 264 264 265 264 257 250 246 240 237 236 235 235 235 236 236 236 237 237 238 241 242 236 230 227 228 231 234 237 237 234 231 229 226 223 222 222 221 218 217 217 217 213 210 209 211 213 219 230 245 265 278 272 257 251 252 252 251 254 259 262 265 269 273 278 285 290 292 293 294 296 295 294 295
296 294 294 294 286 276 272 272 273 273 270 267 264 263 263 263 259 253 248 243 240 238 236 236 236 236 236 237 238 239 239 240 242 237 230 228 230 231 234 237 237 235 231 228 226 223 221 220 217 213 211 211 209 207 207 209 211 215 223 234 247 264 273 261 249 248 250 251 253 255 259 265 269 271 275 282 288 291 292 293 293 293 294 295 296
296 294 294 294 289 282 278 274 273 273 271 267 265 263 262 262 261 256 250 245 241 239 237 237 237 237 237 238 238 240 241 242 244 238 229 227 231 233 234 236 237 236 232 228 227 225 221 217 212 209 208 207 206 207 208 210 212 217 226 236 249 263 266 253 245 247 250 253 256 256 262 269 272 274 280 288 291 290 289 289 290 292 293 294 296
296 294 293 291 288 286 282 277 274 274 272 269 266 264 262 261 261 258 253 247 243 241 240 239 238 238 238 238 237 238 241 242 245 241 231 227 231 232 231 233 236 237 234 229 226 225 222 216 210 206 206 206 207 208 210 211 213 218 228 239 251 261 260 250 246 250 254 256 258 261 267 272 275 279 285 289 289 288 288 289 290 292 294 295 297
295 294 292 290 287 285 282 279 276 275 273 270 267 264 263 262 262 260 256 249 245 243 242 240 239 238 238 237 236 237 240 242 245 242 232 228 232 231 229 232 236 237 234 230 227 225 222 217 212 208 207 205 206 208 210 211 214 222 232 242 253 260 256 250 252 255 259 262 264 267 271 274 278 283 286 286 287 288 290 291 292 293 295 296 297
292 292 290 288 286 283 282 281 279 276 274 271 267 265 264 263 261 260 257 252 248 246 244 242 240 239 239 238 236 238 239 242 245 241 230 227 232 231 229 231 235 235 232 229 228 225 221 218 216 214 210 207 208 211 214 215 218 226 236 245 256 260 252 250 258 262 263 265 266 268 271 273 276 280 283 285 287 289 291 291 292 293 295 296 296
292 291 289 288 287 286 284 282 280 277 274 271 268 267 265 263 262 260 257 254 251 247 245 244 242 240 240 239 239 239 240 242 246 239 229 229 232 231 230 230 232 231 228 226 226 223 219 218 217 215 212 210 212 216 216 217 221 230 239 248 259 260 250 248 262 271 269 267 265 265 267 270 273 277 282 284 287 289 290 289 290 293 295 296 296
292 290 289 291 292 290 288 284 281 278 274 271 270 269 267 265 262 260 257 255 253 250 248 246 243 242 242 241 241 241 241 243 243 235 229 230 230 228 230 231 231 229 226 223 223 221 219 217 216 215 213 213 217 219 216 218 225 234 242 250 260 261 252 247 261 279 279 271 267 266 266 269 272 277 281 283 286 287 286 287 291 294 294 294 296
296 293 294 297 296 292 288 284 281 278 275 273 272 271 269 266 263 261 258 257 256 255 252 249 246 243 242 242 242 243 244 246 243 233 227 228 228 227 229 230 230 228 225 222 221 219 218 217 215 214 213 215 218 218 217 222 230 237 245 252 259 264 257 247 256 278 283 273 267 266 267 270 274 277 280 282 285 286 287 290 294 295 294 294 297
302 299 297 296 293 289 285 282 280 277 275 274 273 272 269 266 264 261 259 258 258 257 255 251 248 246 243 242 243 244 246 248 244 235 228 227 229 228 227 227 226 225 223 221 220 219 218 216 214 213 213 214 216 216 220 227 233 240 247 252 260 266 260 248 254 271 279 272 264 263 264 268 271 274 278 281 284 286 290 295 298 298 297 296 296
302 297 293 290 288 286 283 281 279 277 276 275 274 271 268 265 263 261 259 257 257 256 254 252 250 247 244 242 242 244 247 247 243 236 230 229 230 230 228 226 225 222 220 219 219 218 217 214 211 209 210 212 214 216 222 229 235 242 247 253 263 268 261 251 256 268 275 270 263 261 264 268 273 277 280 283 285 287 292 296 298 298 296 294 292
300 295 291 288 286 285 283 281 279 277 276 274 271 269 266 264 262 260 258 256 255 254 253 252 250 249 246 244 241 242 245 245 241 234 230 229 230 231 229 228 226 223 220 219 219 219 216 212 208 207 209 210 211 215 221 229 236 243 247 256 266 267 258 254 259 267 272 268 263 265 270 274 278 281 282 285 288 290 292 294 294 294 291 288 288
306 301 295 291 288 285 283 281 278 276 274 271 268 266 264 262 260 258 256 254 253 253 252 252 251 250 247 245 243 242 243 244 240 234 231 230 230 229 228 228 227 223 219 218 220 219 216 211 208 209 211 211 212 216 222 230 237 242 249 259 265 261 255 257 261 267 269 268 268 272 276 278 280 282 284 286 288 289 289 289 288 286 285 284 283
309 305 301 298 294 290 285 281 278 275 272 269 267 265 262 259 256 254 252 251 250 249 249 250 250 249 247 245 244 243 242 242 241 236 233 233 232 229 227 228 227 223 219 218 219 218 215 212 211 212 214 214 216 220 225 231 236 243 252 260 259 254 254 258 262 265 267 268 272 275 276 278 280 282 284 285 285 286 287 288 287 285 284 284 282
304 304 303 300 297 293 288 283 278 274 271 268 265 261 258 255 253 251 249 248 247 246 247 248 248 247 246 244 243 242 240 240 239 236 233 232 232 231 229 228 226 223 220 219 220 220 218 216 215 216 217 218 220 223 228 233 239 248 256 257 252 250 254 258 261 264 266 268 271 272 274 278 280 281 282 282 283 286 287 288 289 290 291 289 284
298 298 298 297 295 292 287 283 279 275 271 266 262 258 255 252 249 247 245 244 243 244 245 246 245 244 243 243 242 241 240 238 235 232 230 229 229 231 229 224 220 217 217 217 219 220 220 219 218 218 219 221 223 227 232 237 244 251 253 250 248 251 255 258 259 261 263 266 268 270 273 276 276 277 279 281 285 289 291 293 294 294 293 289 284
295 294 293 292 291 288 285 281 277 273 268 263 258 255 254 251 248 246 243 241 241 242 243 243 242 241 241 241 240 240 238 235 230 228 227 227 227 227 224 217 212 211 212 214 216 217 217 218 219 220 221 224 228 233 238 243 247 248 246 245 249 253 254 255 257 259 261 263 265 270 273 274 274 277 282 288 294 297 297 297 295 291 289 286 284
294 292 291 290 288 286 283 279 275 270 263 257 252 250 248 247 246 245 243 240 240 240 240 240 239 238 239 239 239 237 234 230 227 224 223 223 221 217 212 209 209 209 210 212 214 215 216 218 220 222 226 230 234 238 242 244 244 242 243 245 248 249 250 252 255 256 258 261 266 270 271 272 277 285 292 298 301 301 297 293 289 288 288 287 285
292 290 288 287 285 284 281 277 273 267 261 254 249 246 244 242 242 242 242 242 241 241 240 240 239 239 239 238 235 231 228 226 225 225 225 223 219 212 206 204 205 207 209 211 213 215 218 221 223 226 229 232 235 237 238 239 238 239 242 244 243 244 246 248 250 252 257 261 263 265 268 275 286 295 301 302 301 298 293 288 285 286 287 285 283
290 288 286 284 283 281 278 274 270 265 259 253 248 245 243 242 242 242 243 244 246 247 246 246 245 242 239 236 233 230 230 231 230 229 229 226 219 213 209 207 207 207 210 212 214 216 219 222 225 228 230 231 233 234 234 234 236 237 239 239 239 241 243 245 250 255 258 259 260 264 272 285 295 299 300 299 296 291 286 282 282 283 283 282 282
289 287 286 284 282 279 274 270 265 260 255 251 246 242 240 238 239 241 242 244 246 246 245 246 246 243 239 237 237 238 241 241 235 229 227 223 218 215 214 213 212 213 214 215 216 218 221 223 226 228 229 229 230 230 231 233 234 235 235 236 237 238 240 244 250 253 254 257 263 273 284 293 298 298 297 295 290 285 281 279 279 280 280 281 283
288 287 285 284 280 275 270 265 259 254 250 247 244 241 237 233 231 233 236 239 241 239 234 231 231 232 234 236 236 232 225 219 218 219 218 215 212 212 214 215 216 218 218 217 217 219 221 223 225 226 226 227 228 229 231 232 233 233 234 235 236 238 241 245 250 253 257 266 275 283 290 293 295 295 293 290 285 281 279 278 278 279 280 281 283
286 284 283 278 272 267 262 257 253 249 246 242 241 240 237 233 228 225 224 227 230 229 225 220 217 215 214 213 212 209 199 189 189 195 199 202 203 205 208 210 212 214 216 217 218 219 219 220 221 222 223 224 226 227 229 230 231 232 234 237 240 244 248 252 255 259 267 275 281 285 288 290 291 290 287 283 281 278 278 279 279 280 281 282 284
281 279 276 270 264 261 257 252 248 247 245 242 240 239 238 235 229 223 217 215 214 213 211 209 206 201 196 192 189 188 188 188 189 188 190 195 198 197 199 201 202 205 208 211 212 215 216 217 219 221 222 224 225 226 228 230 231 234 237 240 245 252 255 256 259 264 270 276 279 283 285 286 285 284 282 279 278 279 281 283 282 281 282 284 288
272 269 265 261 260 259 255 249 246 244 244 243 242 240 238 236 233 228 222 214 206 200 198 196 192 190 188 186 184 182 183 187 191 190 189 191 193 193 194 195 197 201 207 210 211 213 214 216 218 220 222 224 225 226 228 231 233 235 238 242 247 251 254 256 259 263 266 270 274 277 280 280 279 279 278 276 277 279 282 283 283 283 284 286 289
262 257 251 249 251 252 250 245 243 243 243 242 242 240 239 237 234 231 228 221 209 198 191 187 187 187 187 186 186 185 184 185 188 191 191 192 192 192 194 195 197 201 206 210 212 214 217 219 220 222 223 225 227 229 231 234 235 237 240 244 247 249 250 253 255 257 260 265 272 276 277 277 277 276 275 274 274 277 280 282 283 283 284 285 287
250 242 233 228 229 233 236 237 238 240 241 240 239 239 237 236 233 229 227 223 217 209 202 197 194 192 191 190 191 191 188 188 189 191 194 196 197 199 200 201 203 206 207 209 210 213 216 219 221 223 226 228 230 232 234 235 236 239 242 245 247 247 248 250 252 257 262 267 271 272 271 272 274 273 273 273 274 275 278 280 281 282 283 284 285
236 226 218 213 210 210 216 222 225 230 235 236 236 236 234 232 231 228 225 225 225 224 223 220 213 208 203 199 197 196 194 193 192 193 195 199 203 206 209 210 212 213 213 213 215 216 219 221 224 227 229 231 232 234 235 235 238 240 243 244 245 245 246 249 254 260 266 268 268 268 268 269 270 270 269 271 272 273 275 276 277 279 280 281 282
224 216 209 203 197 196 198 199 202 208 217 223 228 231 230 228 227 226 225 225 225 224 225 224 221 219 215 208 202 199 198 197 197 198 200 203 206 208 210 212 214 216 218 219 222 224 226 228 230 231 232 234 234 235 236 237 239 240 242 243 244 244 247 251 256 262 266 268 267 268 268 269 269 269 269 270 272 274 275 275 276 277 278 279 280
218 209 202 196 192 193 194 196 200 205 212 218 223 227 228 227 226 227 226 225 224 224 224 223 222 223 223 219 213 208 206 205 205 205 206 208 209 209 211 213 216 219 222 223 225 227 229 231 232 232 233 234 234 235 236 237 238 240 242 245 248 251 254 260 264 266 267 268 267 266 267 269 270 271 271 274 277 278 277 275 274 275 276 277 278
219 209 202 197 196 196 196 199 205 211 216 222 226 229 231 231 229 229 228 226 225 223 220 219 220 220 221 221 218 216 214 212 211 211 211 213 214 215 217 219 222 224 226 228 229 229 230 231 232 232 233 234 234 236 237 238 238 241 245 250 256 260 263 265 266 266 266 267 267 265 265 266 268 270 273 276 278 278 275 273 272 272 274 276 278
218 214 211 207 204 202 202 206 212 218 223 229 231 233 234 232 228 227 226 225 225 222 218 216 217 218 219 218 217 217 218 218 218 220 221 223 226 226 226 226 228 229 230 231 231 232 232 232 233 233 234 236 237 239 240 241 243 247 251 256 260 263 264 264 264 265 267 269 269 269 269 269 272 276 280 283 282 280 278 277 277 277 277 278 280
223 224 224 221 217 216 217 221 223 225 226 229 231 231 230 227 224 223 223 223 223 221 217 214 214 215 217 219 219 219 220 222 225 228 228 229 231 231 230 229 229 229 229 229 231 234 235 235 236 237 239 241 244 245 246 248 251 253 256 259 262 264 265 263 263 265 266 267 269 272 274 276 278 280 283 285 285 284 283 283 282 281 280 280 281
232 234 235 232 229 227 227 226 224 222 219 219 221 222 223 223 223 221 220 220 221 218 216 215 216 217 219 220 221 223 223 223 225 226 227 228 229 230 231 231 231 231 231 233 234 236 237 237 238 240 242 245 247 249 251 253 254 255 256 257 260 262 262 262 263 264 265 266 269 273 276 276 277 276 277 279 280 281 282 282 281 281 281 280 279
229 229 230 228 224 221 220 217 213 211 211 212 213 216 218 221 222 221 220 219 219 219 220 222 224 225 225 226 227 228 228 228 228 228 229 230 231 232 234 235 236 237 239 239 239 239 238 239 241 243 245 247 249 250 251 252 252 253 254 255 256 258 258 259 260 262 263 265 268 270 272 272 272 273 273 274 276 277 278 278 279 279 278 278 276
215 212 212 212 210 208 208 206 205 207 210 212 214 216 217 219 220 222 223 224 225 226 227 228 229 231 232 233 234 234 232 232 233 234 235 235 235 235 236 237 239 241 241 240 240 239 238 239 241 243 245 247 248 249 250 250 250 251 253 253 255 256 257 258 259 260 262 264 265 267 268 268 269 271 272 272 273 275 275 276 276 276 276 275 275
203 197 196 198 199 201 204 207 209 213 216 216 217 218 219 221 223 226 228 230 231 232 233 233 233 234 234 234 234 234 234 235 236 236 236 236 236 237 238 239 240 242 242 242 242 242 241 243 244 245 246 248 249 249 250 251 251 253 254 255 256 257 258 260 261 262 263 264 264 265 266 267 268 269 270 270 271 272 274 275 275 275 275 274 273
198 194 193 196 199 205 211 214 217 220 220 220 221 223 224 227 230 231 233 234 234 233 233 232 232 233 234 234 234 234 234 235 234 233 234 236 237 239 241 242 243 244 244 244 245 246 247 249 250 250 251 251 251 252 254 254 255 257 258 259 260 261 261 262 263 263 263 264 264 264 266 267 268 268 268 268 269 271 272 273 273 272 271 270 269
203 203 203 205 207 213 218 220 222 224 225 225 227 228 228 229 230 231 231 232 231 231 232 232 232 234 234 235 235 235 234 234 234 235 236 239 240 242 243 243 243 244 244 246 248 250 252 253 254 254 254 254 255 256 257 258 259 261 261 261 262 262 262 262 263 263 263 264 264 266 267 267 267 267 266 266 267 268 269 269 269 267 266 266 265
210 212 213 215 216 218 221 223 224 226 227 227 228 228 227 229 230 230 231 233 233 233 234 234 234 236 236 236 236 237 237 237 239 240 241 242 242 243 242 242 242 243 246 249 252 254 256 256 257 257 257 257 258 258 259 260 261 261 262 262 262 263 263 263 263 263 263 264 264 265 265 265 265 265 265 265 266 266 266 266 266 264 263 263 264
220 220 220 221 220 220 221 221 222 223 223 224 226 227 229 230 232 233 234 236 236 237 238 237 237 237 238 239 240 241 241 242 242 241 241 240 240 241 242 244 245 248 250 253 255 257 258 258 258 258 259 259 260 260 261 261 262 262 263 263 264 265 265 265 265 264 264 264 263 263 263 263 264 264 265 265 265 265 264 264 264 262 262 262 262
221 219 218 218 217 216 215 215 215 218 220 222 224 227 230 232 234 237 238 240 241 241 241 241 240 240 240 240 240 240 239 239 238 238 238 238 240 242 246 249 251 253 255 255 256 257 257 258 259 260 261 262 263 264 265 265 266 266 265 265 266 266 266 265 265 264 264 263 262 262 262 262 262 263 264 264 264 264 263 262 261 260 260 260 261